Weather in Uzda

Belarus     53°27′54″N   27°12′53″E
temp.,
°C
wind,
m/s
gust,
m/s
humid.,
%
clouds,
%
prec.,
mm/h
press.,
hPa
HPBL,
m
27 september, mon
mon2700:00+6nne23900 0.0 102544
03:00+5nne34880 0.0 102660
06:00+4ne35935 0.0 1026106
09:00+7ne36852 0.0 1027234
12:00+11ene456922 0.0 1027813
15:00+13ene446055 0.0 10261266
18:00+12ene4665100 0.0 1026439
21:00+9ne368198 0.0 1027218
28 september, tue
tue2800:00+9ne3580100 0.0 1027140
03:00+9ene3682100 0.0 1027237
06:00+8ne2584100 0.0 1027171
09:00+8ene2582100 0.0 1028190
12:00+10ene3472100 0.0 1029307
15:00+13e34566 0.0 10291179
18:00+11ene24695 0.0 102987
21:00+8ene238161 0.0 103031
29 september, wed
wed2900:00+9e4886100 0.0 1032361
03:00+8e379278 0.0 1032265
06:00+6ese379530 0.0 1033214
09:00+7ese488211 0.0 1033418
12:00+11se566330 0.0 10341004
15:00+11se5559100 0.0 10331346
18:00+9ese4770100 0.0 1032474
21:00+9se4760100 0.0 1033509
30 september, thu
thu3000:00+9sse5858100 0.0 1033559
03:00+8se486571 0.0 1032297
06:00+4se39865 0.0 1033202
09:00+6se410765 0.0 1033313
12:00+11sse68595 0.0 1032800
15:00+13sse67565 0.0 10311121
18:00+11sse48655 0.0 1030290
21:00+7se397810 0.0 1031150
1 october, fri
fri100:00+6se3107892 0.0 1032189
03:00+5se4107686 0.0 1031196
06:00+5se4976100 0.0 1031186
09:00+7sse41068100 0.0 1031269
12:00+11sse6953100 0.0 1031515
15:00+13s6851100 0.0 1030837
18:00+11sse376299 0.0 1029227
21:00+10sse41062100 0.0 1029295